Weather History for Defiance, OH

Change the Weather History Date:

Friday, January 10, 2014

  Actual Average Record
Temperature  
Mean Temperature 34 °F -  
Max Temperature 41 °F 27 °F 50 °F (1939)
Min Temperature 28 °F 13 °F -14 °F (1982)
Degree Days  
Heating Degree Days 32    
Moisture  
Dew Point 33 °F    
Average Humidity 90    
Maximum Humidity 100    
Minimum Humidity 81    
Precipitation  
Precipitation 0.38 in - - ()
Sea Level Pressure  
Sea Level Pressure 30.08 in    
Wind  
Wind Speed 4 mph (South)    
Max Wind Speed 10 mph    
Max Gust Speed -    
Visibility 3 miles    
Events Rain , Snow    
Averages and records for this station are not official NWS values.
T = Trace of Precipitation, MM = Missing Value Source: NWS Daily Summary

Daily Weather History Graph

Daily Weather History Graph

Search for Another Location

Airport:

Trip Planner

Search our weather history database for the weather conditions in past years. The results will help you decide how hot, cold, wet, or windy it might be!

Date:

Astronomy

Jan. 10, 2014 Rise Set
Actual Time 8:03 AM EST 5:27 PM EST
Civil Twilight 7:32 AM EST 5:58 PM EST
Nautical Twilight 6:57 AM EST 6:32 PM EST
Astronomical Twilight 6:24 AM EST 7:06 PM EST
Moon 1:32 PM EST (1/10) 3:08 AM EST (1/10)
Length of Visible Light 10h 26m
Length of Day
9h 24m
Waxing Gibbous, 75% of the Moon is Illuminated
Jan 10
Waxing Gibbous
Jan 15
Full
Jan 24
Last Quarter
Jan 30
New
Feb 6
First Quarter

Hourly Weather History & Observations

Time (EST) Temp. Windchill Dew Point Humidity Pressure Visibility Wind Dir Wind Speed Gust Speed Precip Events Conditions
12:14 AM 28.4 °F 24.6 °F 24.8 °F 86% 30.25 in 3.0 mi SSE 3.5 mph - 0.00 in   Overcast
12:40 AM 28.4 °F - 26.6 °F 93% 30.24 in 2.0 mi Calm Calm - 0.00 in Snow Light Snow
12:51 AM 28.4 °F - 26.6 °F 93% 30.23 in 1.8 mi Calm Calm - 0.00 in Snow Light Snow
12:53 AM 28.0 °F - 26.1 °F 92% 30.27 in 1.8 mi Calm Calm - 0.00 in Snow Light Snow
1:13 AM 28.4 °F - 26.6 °F 93% 30.22 in 2.0 mi Calm Calm - 0.00 in   Overcast
1:19 AM 28.4 °F - 26.6 °F 93% 30.22 in 1.8 mi Calm Calm - 0.00 in Snow Light Snow
1:29 AM 28.4 °F - 26.6 °F 93% 30.22 in 1.8 mi Calm Calm - 0.00 in Snow Light Snow
1:36 AM 28.4 °F 24.6 °F 26.6 °F 93% 30.22 in 2.0 mi SSE 3.5 mph - 0.00 in   Overcast
1:53 AM 28.9 °F - 27.0 °F 92% 30.25 in 2.0 mi Calm Calm - 0.00 in Snow Light Snow
2:10 AM 30.2 °F 25.4 °F 28.4 °F 93% 30.21 in 2.5 mi South 4.6 mph - 0.00 in   Overcast
2:20 AM 30.2 °F 23.4 °F 28.4 °F 93% 30.21 in 3.0 mi South 6.9 mph - 0.00 in   Overcast
2:27 AM 30.2 °F 23.4 °F 28.4 °F 93% 30.21 in 3.0 mi South 6.9 mph - 0.00 in   Overcast
2:48 AM 30.2 °F 24.3 °F 28.4 °F 93% 30.21 in 4.0 mi South 5.8 mph - 0.00 in   Overcast
2:53 AM 30.9 °F 25.2 °F 28.9 °F 92% 30.24 in 4.0 mi South 5.8 mph - 0.00 in   Overcast
3:11 AM 32.0 °F 27.5 °F 28.4 °F 87% 30.21 in 4.0 mi South 4.6 mph - N/A   Overcast
3:53 AM 32.0 °F 26.4 °F 30.0 °F 92% 30.23 in 4.0 mi South 5.8 mph - N/A   Overcast
4:19 AM 33.8 °F 28.6 °F 30.2 °F 87% 30.19 in 2.5 mi South 5.8 mph - N/A   Overcast
4:26 AM 33.8 °F 29.6 °F 30.2 °F 87% 30.19 in 3.0 mi South 4.6 mph - N/A   Overcast
4:53 AM 33.1 °F 27.7 °F 30.9 °F 92% 30.21 in 3.0 mi South 5.8 mph - N/A   Overcast
5:53 AM 34.0 °F 28.8 °F 30.9 °F 89% 30.19 in 4.0 mi South 5.8 mph - N/A   Overcast
6:53 AM 34.0 °F 28.0 °F 30.9 °F 89% 30.19 in 4.0 mi South 6.9 mph - N/A   Overcast
7:53 AM 34.0 °F 29.8 °F 30.9 °F 89% 30.20 in 4.0 mi South 4.6 mph - N/A   Overcast
8:40 AM 35.6 °F 30.7 °F 32.0 °F 87% 30.16 in 2.0 mi South 5.8 mph - N/A   Overcast
8:44 AM 33.8 °F 28.6 °F 32.0 °F 93% 30.16 in 1.8 mi South 5.8 mph - N/A   Overcast
8:53 AM 34.0 °F 28.8 °F 32.0 °F 92% 30.19 in 1.2 mi South 5.8 mph - N/A   Overcast
9:44 AM 35.6 °F 29.2 °F 33.8 °F 93% 30.17 in 2.0 mi South 8.1 mph - N/A   Overcast
9:53 AM 35.1 °F 30.1 °F 33.1 °F 92% 30.19 in 2.0 mi South 5.8 mph - N/A   Overcast
10:02 AM 35.6 °F 30.7 °F 33.8 °F 93% 30.16 in 2.5 mi South 5.8 mph - N/A   Overcast
10:13 AM 35.6 °F 28.6 °F 33.8 °F 93% 30.17 in 2.0 mi South 9.2 mph - N/A   Overcast
10:23 AM 35.6 °F 29.2 °F 33.8 °F 93% 30.16 in 1.8 mi South 8.1 mph - N/A   Overcast
10:37 AM 35.6 °F 31.7 °F 33.8 °F 93% 30.15 in 2.0 mi SSE 4.6 mph - N/A   Overcast
10:45 AM 35.6 °F 29.2 °F 33.8 °F 93% 30.16 in 2.5 mi South 8.1 mph - N/A   Overcast
10:53 AM 36.0 °F 29.6 °F 33.1 °F 89% 30.19 in 2.5 mi South 8.1 mph - N/A   Overcast
11:10 AM 35.6 °F 28.6 °F 33.8 °F 93% 30.15 in 3.0 mi South 9.2 mph - N/A   Overcast
11:53 AM 37.0 °F 31.6 °F 33.1 °F 86% 30.14 in 3.0 mi South 6.9 mph - N/A   Overcast
12:53 PM 37.9 °F 33.5 °F 34.0 °F 86% 30.09 in 3.0 mi South 5.8 mph - N/A   Overcast
1:13 PM 37.4 °F 32.1 °F 33.8 °F 87% 30.04 in 3.0 mi SSE 6.9 mph - N/A   Overcast
1:46 PM 39.2 °F 35.0 °F 33.8 °F 81% 30.02 in 4.0 mi SSE 5.8 mph - N/A   Haze
1:53 PM 39.0 °F 34.8 °F 34.0 °F 82% 30.04 in 4.0 mi South 5.8 mph - N/A   Haze
2:27 PM 39.2 °F 33.6 °F 33.8 °F 81% 30.00 in 6.0 mi SSE 8.1 mph - N/A   Haze
2:49 PM 39.2 °F 34.2 °F 35.6 °F 87% 29.99 in 5.0 mi SSE 6.9 mph - N/A   Overcast
2:53 PM 39.0 °F 33.4 °F 35.1 °F 86% 30.01 in 5.0 mi SSE 8.1 mph - N/A   Overcast
3:53 PM 39.9 °F 33.4 °F 36.0 °F 86% 29.97 in 4.0 mi SE 10.4 mph - N/A   Overcast
4:53 PM 39.9 °F 35.1 °F 36.0 °F 86% 29.95 in 4.0 mi SE 6.9 mph - N/A   Overcast
5:08 PM 39.2 °F 35.9 °F 35.6 °F 87% 29.92 in 4.0 mi SE 4.6 mph - N/A   Overcast
5:53 PM 39.0 °F 34.0 °F 36.0 °F 89% 29.91 in 5.0 mi SE 6.9 mph - N/A   Mostly Cloudy
6:37 PM 39.2 °F 35.0 °F 35.6 °F 87% 29.86 in 5.0 mi ESE 5.8 mph - 0.00 in   Overcast
6:53 PM 39.0 °F 36.8 °F 36.0 °F 89% 29.88 in 5.0 mi SE 3.5 mph - 0.00 in Rain Light Rain
7:22 PM 39.2 °F 35.0 °F 37.4 °F 93% 29.85 in 4.0 mi SSE 5.8 mph - 0.01 in Rain Light Rain
7:53 PM 39.0 °F 35.7 °F 37.0 °F 93% 29.86 in 4.0 mi SSE 4.6 mph - 0.04 in Rain Light Rain
8:17 PM 39.2 °F 35.9 °F 37.4 °F 93% 29.83 in 2.5 mi South 4.6 mph - 0.02 in Rain Light Rain
8:26 PM 37.4 °F 32.8 °F 37.4 °F 100% 29.83 in 2.0 mi South 5.8 mph - 0.04 in Rain Rain
8:36 PM 39.2 °F 35.0 °F 37.4 °F 93% 29.83 in 1.8 mi South 5.8 mph - 0.08 in Rain Rain
8:44 PM 39.2 °F 35.0 °F 37.4 °F 93% 29.82 in 2.0 mi South 5.8 mph - 0.10 in Rain Rain
8:53 PM 39.0 °F 34.8 °F 37.0 °F 93% 29.83 in 2.5 mi South 5.8 mph - 0.11 in Rain Rain
9:38 PM 39.2 °F 37.0 °F 37.4 °F 93% 29.79 in 3.0 mi SSE 3.5 mph - 0.08 in Rain Light Rain
9:53 PM 39.9 °F 35.8 °F 37.9 °F 93% 29.79 in 3.0 mi South 5.8 mph - 0.11 in Rain Rain
10:53 PM 39.9 °F 34.5 °F 37.9 °F 93% 29.73 in 3.0 mi SSE 8.1 mph - 0.09 in Rain Light Rain
11:53 PM 41.0 °F 35.2 °F 39.0 °F 93% 29.68 in 3.0 mi South 9.2 mph - 0.03 in Rain Light Rain